| time (UTC) | temp F | wind direction | speed knots | gust knots | rain 1hr in | rain 24hr in | rain mn in | humidity % | barometer mb |
| 20260506211504 | 39 | 50 | 0.0 | 1.7 | 0.00 | 0.00 | 0.00 | 72 | 1011.9 |
| 20260506210004 | 41 | 50 | 0.0 | 0.0 | 0.00 | 0.00 | 0.00 | 70 | 1011.9 |
| 20260506201504 | 44 | 50 | 0.0 | 0.0 | 0.00 | 0.00 | 0.00 | 62 | 1011.9 |
| 20260506200004 | 44 | 50 | 0.0 | 2.6 | 0.00 | 0.00 | 0.00 | 61 | 1011.9 |
| 20260506191504 | 46 | 71 | 0.9 | 2.6 | 0.00 | 0.00 | 0.00 | 54 | 1011.8 |
| 20260506190005 | 47 | 63 | 0.9 | 4.3 | 0.00 | 0.00 | 0.00 | 51 | 1011.4 |
| 20260506180006 | 48 | 70 | 3.5 | 10.4 | 0.00 | 0.00 | 0.00 | 48 | 1011.2 |
| 20260506173005 | 48 | 67 | 6.1 | 10.4 | 0.00 | 0.00 | 0.00 | 44 | 1011.2 |
| 20260506164505 | 49 | 80 | 4.3 | 10.4 | 0.00 | 0.00 | 0.00 | 47 | 1011.5 |
| 20260506154504 | 49 | 77 | 4.3 | 13.0 | 0.00 | 0.00 | 0.00 | 46 | 1011.3 |
| 20260506151504 | 50 | 82 | 4.3 | 11.3 | 0.00 | 0.00 | 0.00 | 51 | 1011.3 |
| 20260506144504 | 50 | 68 | 7.0 | 12.2 | 0.00 | 0.00 | 0.00 | 51 | 1011.3 |
| 20260506134504 | 51 | 111 | 6.1 | 14.8 | 0.00 | 0.00 | 0.00 | 47 | 1011.2 |
| 20260506133005 | 51 | 108 | 4.3 | 12.2 | 0.00 | 0.00 | 0.00 | 46 | 1011.2 |
| 20260506123005 | 52 | 68 | 7.8 | 14.8 | 0.00 | 0.00 | 0.00 | 42 | 1011.2 |
| 20260506120004 | 53 | 75 | 7.8 | 12.2 | 0.00 | 0.00 | 0.00 | 42 | 1011.3 |
| 20260506114504 | 52 | 59 | 5.2 | 17.4 | 0.00 | 0.00 | 0.00 | 45 | 1011.4 |
| 20260506111505 | 52 | 92 | 4.3 | 12.2 | 0.00 | 0.00 | 0.00 | 47 | 1011.6 |
| 20260506110004 | 51 | 86 | 6.1 | 11.3 | 0.00 | 0.00 | 0.00 | 47 | 1011.6 |
| 20260506104505 | 51 | 69 | 6.1 | 13.0 | 0.00 | 0.00 | 0.00 | 48 | 1011.7 |
| 20260506103005 | 51 | 78 | 6.1 | 13.0 | 0.00 | 0.00 | 0.00 | 48 | 1011.8 |
| 20260506100006 | 51 | 69 | 7.0 | 13.0 | 0.00 | 0.00 | 0.00 | 50 | 1011.7 |
| 20260506094504 | 51 | 84 | 7.8 | 12.2 | 0.00 | 0.00 | 0.00 | 49 | 1011.6 |
| 20260506091504 | 51 | 86 | 3.5 | 11.3 | 0.00 | 0.00 | 0.00 | 52 | 1011.6 |
| 20260506090004 | 51 | 66 | 6.1 | 12.2 | 0.00 | 0.00 | 0.00 | 49 | 1011.6 |
| 20260506083005 | 51 | 75 | 3.5 | 11.3 | 0.00 | 0.00 | 0.00 | 51 | 1011.3 |
| 20260506081505 | 51 | 91 | 2.6 | 10.4 | 0.00 | 0.00 | 0.00 | 52 | 1011.3 |
| 20260506071504 | 50 | 85 | 6.1 | 10.4 | 0.00 | 0.00 | 0.00 | 51 | 1011.3 |
| 20260506040004 | 44 | 63 | 2.6 | 6.1 | 0.00 | 0.00 | 0.00 | 77 | 1010.9 |
| 20260506034504 | 44 | 66 | 3.5 | 7.8 | 0.00 | 0.00 | 0.00 | 77 | 1010.6 |
| 20260506033005 | 44 | 73 | 3.5 | 8.7 | 0.00 | 0.00 | 0.00 | 77 | 1010.3 |
| 20260506031505 | 44 | 68 | 2.6 | 12.2 | 0.00 | 0.00 | 0.00 | 78 | 1010.3 |
| 20260506030005 | 44 | 69 | 4.3 | 10.4 | 0.00 | 0.00 | 0.00 | 81 | 1010.3 |
| 20260506020004 | 44 | 86 | 2.6 | 10.4 | 0.00 | 0.00 | 0.00 | 92 | 1010.3 |
| 20260506014504 | 44 | 85 | 2.6 | 8.7 | 0.00 | 0.00 | 0.00 | 93 | 1010.2 |
| 20260506011504 | 43 | 79 | 2.6 | 7.0 | 0.00 | 0.00 | 0.00 | 94 | 1009.8 |
| 20260505234503 | 44 | 68 | 4.3 | 7.0 | 0.00 | 0.00 | 0.00 | 93 | 1009.2 |
| 20260505231504 | 43 | 71 | 5.2 | 8.7 | 0.00 | 0.00 | 0.00 | 93 | 1009.1 |
| 20260505230004 | 43 | 63 | 2.6 | 5.2 | 0.00 | 0.00 | 0.00 | 92 | 1009.1 |
| 20260505224504 | 43 | 56 | 1.7 | 2.6 | 0.00 | 0.00 | 0.00 | 91 | 1009.1 |
| 20260505221504 | 44 | 81 | 1.7 | 2.6 | 0.00 | 0.00 | 0.00 | 91 | 1009.1 |
| 20260505214504 | 44 | 50 | 0.0 | 2.6 | 0.00 | 0.00 | 0.00 | 91 | 1008.7 |
| 20260505213005 | 44 | 98 | 0.9 | 2.6 | 0.00 | 0.00 | 0.00 | 90 | 1008.7 |